This is the latest recevied weather packets stored in our database for station/object WB3IGR. If no packets are shown the sender has not sent any weather packets the latest 10 day(s).
| Time | Temp. | Humidity | Pressure | Rain* | Wind** | Luminosity | Snow |
|---|---|---|---|---|---|---|---|
| 1777706064 | 7.78° C | 99% | 1013.3 hPa | 0 mm | - | 0 W/m² | - |
| 1777705763 | 8.33° C | 99% | 1013.3 hPa | 0 mm | - | 0 W/m² | - |
| 1777705460 | 8.33° C | 99% | 1013.4 hPa | 0 mm | - | 0 W/m² | - |
| 1777705158 | 8.33° C | 99% | 1013.5 hPa | 0 mm | - | 0 W/m² | - |
| 1777704857 | 8.33° C | 99% | 1013.4 hPa | 0 mm | - | 0 W/m² | - |
| 1777704554 | 8.33° C | 99% | 1013.5 hPa | 0 mm | - | 0 W/m² | - |
| 1777704252 | 8.33° C | 99% | 1013.6 hPa | 0 mm | - | 0 W/m² | - |
| 1777703949 | 8.33° C | 99% | 1013.4 hPa | 0 mm | - | 0 W/m² | - |
| 1777703646 | 8.33° C | 99% | 1013.4 hPa | 0 mm | - | 0 W/m² | - |
| 1777703344 | 8.33° C | 99% | 1013.7 hPa | 0 mm | - | 0 W/m² | - |
| 1777703041 | 8.33° C | 99% | 1013.8 hPa | 0 mm | - | 0 W/m² | - |
| 1777702740 | 8.33° C | 99% | 1013.6 hPa | 1.27 mm | - | 0 W/m² | - |
| 1777702437 | 8.33° C | 99% | 1013.9 hPa | 1.27 mm | - | 0 W/m² | - |
| 1777702133 | 8.33° C | 99% | 1013.8 hPa | 0 mm | - | 0 W/m² | - |
| 1777701828 | 8.89° C | 99% | 1013.9 hPa | 1.78 mm | - | 0 W/m² | - |
| 1777701526 | 8.89° C | 99% | 1014.1 hPa | 1.78 mm | - | 0 W/m² | - |
| 1777701223 | 8.89° C | 99% | 1014 hPa | 0 mm | - | 0 W/m² | - |
| 1777700923 | 8.89° C | 99% | 1014.3 hPa | 0 mm | - | 0 W/m² | - |
| 1777700620 | 8.89° C | 99% | 1014.4 hPa | 0 mm | - | 0 W/m² | - |
| 1777700317 | 8.89° C | 99% | 1014.1 hPa | 1.78 mm | - | 0 W/m² | - |
| 1777700014 | 8.89° C | 99% | 1014.3 hPa | 1.78 mm | - | 0 W/m² | - |
| 1777699712 | 9.44° C | 98% | 1014.5 hPa | 3.05 mm | - | 0 W/m² | - |
| 1777699410 | 9.44° C | 98% | 1014.6 hPa | 4.32 mm | - | 0 W/m² | - |
| 1777699108 | 9.44° C | 96% | 1014.5 hPa | 1.27 mm | - | 0 W/m² | - |
| 1777698806 | 9.44° C | 96% | 1014.4 hPa | 0 mm | - | 0 W/m² | - |
* Rain latest hour (hover to see other rain measurements)
** Current wind speed in m/s (hover to see current wind gust speed)